Tracking 28125 objects as of 2-Oct-2023
HD Live streaming from Space Station
objects crossing your sky now

STARLINK-1581

Track STARLINK-1581 now!
10-day predictions
STARLINK-1581 is classified as:


NORAD ID: 46042
Int'l Code: 2020-055R
Perigee: 553.3 km
Apogee: 555.1 km
Inclination: 53.1 °
Period: 95.6 minutes
Semi major axis: 6925 km
RCS: Unknown
Launch date: August 7, 2020
Source: United States (US)
Launch site: AIR FORCE EASTERN TEST RANGE (AFETR)
Your satellite tracking list
Your tracking list is empty




NASA's NSSDC Master Catalog

Two Line Element Set (TLE):
1 46042U 20055R   23275.05375462  .00033090  00000-0  22271-2 0  9990
2 46042  53.0534 160.3521 0001363 100.6027 259.5115 15.06447226174293
Source of the keplerian elements: AFSPC